Content
SEND FEEDBACK

Daily
Averages
Monthly
Summary
United States of America

WOODBURY, GEORGIA


Home > North America > United States > Georgia
Elevation: 80 feet     Latitude: 32 59N     Longitude: 084 35W

WEATHER
 
SELECT A DAY
Number of Records: 331,109;   Date Range: 10/4/00 - 4/16/14
 
SHARE

PRINT THIS DATA

[ ← Previous Day ]
WEATHER ALMANAC - JANUARY 31, 2013
[ Next Day → ]
[ °C ]   °F
Weather ElementAverageHighLow
Temperature41.8 °F51.8 °F (2:35 pm)33.8 °F (6:35 am)
Dewpoint30.5 °F37.4 °F (12:35 am)26.6 °F (2:35 pm)
Humidity65.8 %87 % (6:35 am)38 % (2:35 pm)
Barometer30.10 in30.21 in (10:55 pm)29.88 in (12:35 am)
Wind Speed12.7 mph27.6 mph (2:55 am)
Wind Gust43.7 mph (2:55 am)
Weather ElementAverage
Visibility10 mi
Wind DirectionWNW (289.7 °)

Weather ElementTotal
Precipitation---
Heating Degree Days22.2 (Base 65)
Averaged from 71 records on January 31, 2013
WEATHER CONDITIONS BREAKOUT
WIND DIRECTION BREAKOUT
WEATHER BY HOUR - JANUARY 31, 2013
[ °C ]   °F
Local TimeTemperatureDewpointHumidityBarometerVisibilityWind DirectionWind SpeedGust SpeedPrecipitationEventsConditions
12:35 AM44.6 °F37.4 °F76 %29.88 in10.0 miWNW (300°)25.3 mph38.0 mphOvercast
12:55 AM44.6 °F35.6 °F71 %29.90 in10.0 miWNW (290°)23.0 mph32.2 mphOvercast
1:15 AM42.8 °F33.8 °F70 %29.91 in10.0 miWNW (290°)16.1 mph25.3 mphMostly Cloudy
1:35 AM42.8 °F33.8 °F70 %29.92 in10.0 miWest (280°)16.1 mph23.0 mphScattered Clouds
1:55 AM42.8 °F33.8 °F70 %29.93 in10.0 miWest (280°)17.3 mphScattered Clouds
2:15 AM42.8 °F33.8 °F70 %29.93 in10.0 miWest (280°)15.0 mph20.7 mphMostly Cloudy
2:35 AM41.0 °F33.8 °F76 %29.95 in10.0 miNW (310°)20.7 mph28.8 mphOvercast
2:55 AM41.0 °F30.2 °F65 %29.96 in10.0 miNW (310°)27.6 mph43.7 mphScattered Clouds
3:15 AM39.2 °F30.2 °F70 %29.97 in10.0 miNW (310°)16.1 mph26.5 mphClear
3:35 AM37.4 °F30.2 °F75 %29.98 in10.0 miNW (310°)17.3 mph26.5 mphClear
3:55 AM37.4 °F30.2 °F75 %29.98 in10.0 miNW (310°)17.3 mph24.2 mphClear
4:15 AM37.4 °F30.2 °F75 %29.99 in10.0 miNW (320°)12.7 mph23.0 mphClear
4:35 AM37.4 °F30.2 °F75 %29.98 in10.0 miNW (310°)20.7 mph25.3 mphClear
4:55 AM37.4 °F30.2 °F75 %30.01 in10.0 miNW (310°)16.1 mph25.3 mphClear
5:15 AM35.6 °F30.2 °F81 %30.02 in10.0 miWNW (300°)17.3 mph21.9 mphClear
5:35 AM35.6 °F30.2 °F81 %30.02 in10.0 miNW (310°)11.5 mphClear
5:55 AM35.6 °F30.2 °F81 %30.04 in10.0 miNW (310°)13.8 mph20.7 mphClear
6:15 AM35.6 °F30.2 °F81 %30.05 in10.0 miWNW (300°)12.7 mph18.4 mphClear
6:35 AM33.8 °F30.2 °F87 %30.05 in10.0 miNW (310°)12.7 mphClear
6:55 AM33.8 °F30.2 °F87 %30.05 in10.0 miNW (310°)11.5 mph18.4 mphClear
7:15 AM33.8 °F30.2 °F87 %30.05 in10.0 miNW (310°)10.4 mphClear
7:35 AM33.8 °F30.2 °F87 %30.08 in10.0 miNW (310°)10.4 mphClear
7:55 AM33.8 °F30.2 °F87 %30.08 in10.0 miNW (310°)8.1 mphClear
8:15 AM33.8 °F30.2 °F87 %30.08 in10.0 miNW (310°)9.2 mphClear
8:35 AM35.6 °F30.2 °F81 %30.09 in10.0 miWNW (300°)12.7 mphClear
8:55 AM35.6 °F32.0 °F87 %30.10 in10.0 miNW (320°)13.8 mph19.6 mphClear
9:15 AM37.4 °F30.2 °F75 %30.11 in10.0 miNW (310°)18.4 mph23.0 mphClear
9:35 AM37.4 °F30.2 °F75 %30.11 in10.0 miNW (310°)11.5 mph27.6 mphClear
9:55 AM37.4 °F30.2 °F75 %30.12 in10.0 miNW (320°)13.8 mph24.2 mphClear
10:15 AM41.0 °F32.0 °F70 %30.11 in10.0 miWNW (290°)12.7 mphClear
10:35 AM41.0 °F32.0 °F70 %30.13 in10.0 miNW (310°)13.8 mph20.7 mphClear
10:55 AM42.8 °F32.0 °F66 %30.13 in10.0 miNW (310°)17.3 mph23.0 mphClear
11:15 AM42.8 °F32.0 °F66 %30.14 in10.0 miWNW (300°)17.3 mph24.2 mphClear
11:35 AM44.6 °F30.2 °F57 %30.14 in10.0 miWNW (290°)15.0 mph23.0 mphClear
11:55 AM44.6 °F32.0 °F61 %30.14 in10.0 miWNW (290°)19.6 mph23.0 mphClear
12:15 PM46.4 °F30.2 °F53 %30.15 in10.0 miWNW (290°)15.0 mph26.5 mphClear
12:35 PM46.4 °F30.2 °F53 %30.16 in10.0 miWNW (300°)23.0 mph31.1 mphClear
12:55 PM48.2 °F30.2 °F50 %30.14 in10.0 miWNW (290°)19.6 mph26.5 mphClear
1:15 PM48.2 °F30.2 °F50 %30.13 in10.0 miNW (310°)18.4 mph29.9 mphClear
1:35 PM50.0 °F28.4 °F43 %30.13 in10.0 miNW (320°)12.7 mph20.7 mphClear
1:55 PM50.0 °F28.4 °F43 %30.13 in10.0 miNW (310°)16.1 mph24.2 mphClear
2:15 PM50.0 °F28.4 °F43 %30.13 in10.0 miWNW (300°)16.1 mph26.5 mphClear
2:35 PM51.8 °F26.6 °F38 %30.13 in10.0 miNW (320°)13.8 mph20.7 mphClear
2:55 PM51.8 °F30.2 °F44 %30.13 in10.0 miWNW (300°)18.4 mph26.5 mphClear
3:15 PM50.0 °F28.4 °F43 %30.14 in10.0 miNW (320°)17.3 mph31.1 mphClear
3:35 PM50.0 °F26.6 °F40 %30.13 in10.0 miNW (310°)15.0 mph21.9 mphClear
3:55 PM50.0 °F28.4 °F43 %30.14 in10.0 miNW (320°)16.1 mph21.9 mphClear
4:15 PM50.0 °F28.4 °F43 %30.14 in10.0 miNW (310°)16.1 mph24.2 mphClear
4:35 PM50.0 °F28.4 °F43 %30.14 in10.0 miWNW (300°)11.5 mphClear
4:55 PM50.0 °F28.4 °F43 %30.14 in10.0 miWNW (290°)13.8 mph17.3 mphClear
5:15 PM50.0 °F28.4 °F43 %30.14 in10.0 miWNW (300°)13.8 mph18.4 mphClear
5:35 PM48.2 °F28.4 °F46 %30.15 in10.0 miNW (310°)12.7 mphClear
5:55 PM46.4 °F30.2 °F53 %30.15 in10.0 miWNW (300°)6.9 mphClear
6:15 PM44.6 °F30.2 °F57 %30.15 in10.0 miWNW (290°)5.8 mphClear
6:35 PM42.8 °F30.2 °F61 %30.16 in10.0 miWNW (300°)6.9 mphClear
6:55 PM42.8 °F28.4 °F57 %30.16 in10.0 miWest (280°)3.5 mphClear
7:15 PM42.8 °F30.2 °F61 %30.16 in10.0 miWest (280°)3.5 mphClear
7:35 PM41.0 °F30.2 °F65 %30.17 in10.0 miWest (260°)3.5 mphClear
7:55 PM39.2 °F30.2 °F70 %30.18 in10.0 miWSW (250°)4.6 mphClear
8:15 PM39.2 °F32.0 °F75 %30.19 in10.0 miWest (260°)4.6 mphClear
8:35 PM39.2 °F32.0 °F75 %30.19 in10.0 miWSW (250°)4.6 mphClear
8:55 PM41.0 °F30.2 °F65 %30.19 in10.0 miWSW (250°)5.8 mphClear
9:15 PM41.0 °F30.2 °F65 %30.19 in10.0 miWSW (250°)4.6 mphClear
9:35 PM41.0 °F30.2 °F65 %30.19 in10.0 miWSW (250°)3.5 mphClear
9:55 PM39.2 °F30.2 °F70 %30.19 in10.0 miWSW (240°)3.5 mphClear
10:15 PM39.2 °F30.2 °F70 %30.20 in10.0 miWSW (240°)3.5 mphClear
10:35 PM39.2 °F30.2 °F70 %30.20 in10.0 miCalmClear
10:55 PM39.2 °F30.2 °F70 %30.21 in10.0 miWest (260°)4.6 mphClear
11:15 PM37.4 °F30.2 °F75 %30.20 in10.0 miWSW (250°)5.8 mphClear
11:35 PM37.4 °F30.2 °F75 %30.21 in10.0 miWest (260°)6.9 mphClear
11:55 PM39.2 °F30.2 °F70 %30.21 in10.0 miWest (260°)8.1 mphClear
Hourly data recorded from KOPN, located 18.88 miles away from Woodbury, Georgia







STORIES FROM OUR PARTNERS